Bangor, ME

8:08 AM EST on December 13, 2019 (GMT -0500)
Bangor International

Weather History for KBGR - October, 2019

Change the Weather History Date:

Sunday, October 6, 2019

  Actual Average Record
Temperature  
Mean Temperature 46 °F 51 °F  
Max Temperature 60 °F 62 °F 84 °F (1946)
Min Temperature 31 °F 40 °F 25 °F (1998)
Degree Days  
Heating Degree Days 19 14  
Month to date heating degree days 102 80  
Since 1 July heating degree days 316 352  
Cooling Degree Days 0 0  
Month to date cooling degree days 0 0  
Year to date cooling degree days 336 317  
Moisture  
Dew Point 45 °F    
Average Humidity 77    
Maximum Humidity 100    
Minimum Humidity 53    
Precipitation  
Precipitation T in 0.14 in 1.65 in (1991)
Month to date precipitation 0.51 0.84  
Year to date precipitation 39.53 30.92  
Snow  
Snow 0.00 in 0.00 in 0.00 in (2002)
Month to date snowfall 0.0 0.0  
Since 1 July snowfall 0.0 0.0  
Since 1 September snowfall 0.0 0.0  
Snow Depth 0.00 in    
Sea Level Pressure  
Sea Level Pressure 30.28 in    
Wind  
Wind Speed 7 mph (South)    
Max Wind Speed 20 mph    
Max Gust Speed 29 mph    
Visibility 9 miles    
Events Fog , Rain    
T = Trace of Precipitation, MM = Missing Value Source: NWS Daily Summary

Daily Weather History Graph

Daily Weather History Graph

Search for Another Location

Airport or City:

Astronomy

Oct. 06, 2019 Rise Set
Actual Time 6:39 AM EDT 6:07 PM EDT
Civil Twilight 6:09 AM EDT 6:36 PM EDT
Nautical Twilight 5:35 AM EDT 7:10 PM EDT
Astronomical Twilight 5:01 AM EDT 7:44 PM EDT
Moon 3:02 PM EDT (10/6) No Moon Set
Length of Visible Light 12h 26m
Length of Day
11h 27m
First Quarter, 59% of the Moon is Illuminated
Oct 6
First Quarter
Oct 13
Full
Oct 21
Last Quarter
Oct 27
New
Nov 4
First Quarter

Hourly Weather History & Observations

Time (EDT) Temp. Windchill Dew Point Humidity Pressure Visibility Wind Dir Wind Speed Gust Speed Precip Events Conditions
12:53 AM 36.0 °F 32.1 °F 34.0 °F 93% 30.36 in 10.0 mi South 4.6 mph - N/A   Clear
1:53 AM 33.1 °F - 32.0 °F 96% 30.37 in 10.0 mi Calm Calm - N/A   Clear
2:53 AM 34.0 °F - 33.1 °F 96% 30.37 in 10.0 mi Calm Calm - N/A   Clear
3:53 AM 33.1 °F - 33.1 °F 100% 30.36 in 10.0 mi Calm Calm - N/A   Clear
4:53 AM 32.0 °F - 30.9 °F 96% 30.36 in 10.0 mi Calm Calm - N/A Fog Patches of Fog
5:53 AM 32.0 °F - 30.9 °F 96% 30.37 in 10.0 mi Calm Calm - N/A Fog Patches of Fog
6:53 AM 33.1 °F - 32.0 °F 96% 30.37 in 10.0 mi Calm Calm - N/A Fog Patches of Fog
7:53 AM 36.0 °F 33.3 °F 34.0 °F 93% 30.37 in 10.0 mi South 3.5 mph - N/A   Scattered Clouds
8:53 AM 45.0 °F 40.1 °F 39.9 °F 82% 30.36 in 10.0 mi South 9.2 mph - N/A   Mostly Cloudy
9:53 AM 48.9 °F - 39.9 °F 71% 30.36 in 10.0 mi South 11.5 mph - N/A   Mostly Cloudy
10:53 AM 54.0 °F - 39.9 °F 59% 30.33 in 10.0 mi SSW 13.8 mph 24.2 mph N/A   Mostly Cloudy
11:53 AM 59.0 °F - 42.1 °F 53% 30.32 in 10.0 mi SSW 15.0 mph 24.2 mph N/A   Mostly Cloudy
12:53 PM 57.0 °F - 44.1 °F 62% 30.31 in 10.0 mi South 12.7 mph - N/A   Mostly Cloudy
1:53 PM 57.9 °F - 45.0 °F 62% 30.29 in 10.0 mi South 15.0 mph 21.9 mph N/A   Overcast
2:53 PM 57.9 °F - 46.0 °F 65% 30.27 in 10.0 mi South 18.4 mph 23.0 mph N/A   Overcast
3:53 PM 55.9 °F - 46.9 °F 72% 30.27 in 10.0 mi South 16.1 mph 20.7 mph N/A   Overcast
4:53 PM 55.0 °F - 48.0 °F 77% 30.27 in 10.0 mi South 15.0 mph 25.3 mph N/A   Overcast
5:53 PM 55.0 °F - 48.9 °F 80% 30.26 in 10.0 mi South 15.0 mph - N/A   Overcast
6:21 PM 55.0 °F - 48.9 °F 80% 30.24 in 10.0 mi South 11.5 mph - N/A   Overcast
6:53 PM 55.9 °F - 50.0 °F 80% 30.24 in 10.0 mi South 16.1 mph 23.0 mph N/A   Overcast
7:30 PM 55.9 °F - 52.0 °F 87% 30.23 in 7.0 mi South 13.8 mph - 0.00 in Rain Light Rain
7:53 PM 55.9 °F - 52.0 °F 87% 30.22 in 10.0 mi South 11.5 mph 20.7 mph 0.00 in   Overcast
8:25 PM 55.9 °F - 53.1 °F 90% 30.22 in 10.0 mi South 10.4 mph - N/A   Overcast
8:53 PM 55.9 °F - 53.1 °F 90% 30.21 in 6.0 mi South 10.4 mph - 0.00 in   Light Drizzle
9:28 PM 55.9 °F - 54.0 °F 93% 30.20 in 4.0 mi South 12.7 mph - 0.00 in   Light Drizzle
9:53 PM 55.9 °F - 54.0 °F 93% 30.19 in 6.0 mi South 12.7 mph - 0.00 in   Light Drizzle
10:53 PM 55.9 °F - 55.0 °F 97% 30.17 in 6.0 mi South 13.8 mph - 0.00 in   Overcast
11:13 PM 57.0 °F - 55.0 °F 93% 30.18 in 5.0 mi South 11.5 mph - N/A   Overcast
11:32 PM 57.0 °F - 55.9 °F 96% 30.17 in 4.0 mi South 9.2 mph - N/A   Overcast
11:53 PM 57.0 °F - 55.9 °F 96% 30.17 in 4.0 mi South 8.1 mph - 0.00 in   Light Drizzle